[[{"header":{"parameterUnit":"m.s-1","parameterCategory":1,"la1":30.2991,"la2":30.254,"lo1":-89.0895,"lo2":-89.0444,"dy":0.0017,"dx":0.0017,"nx":28,"ny":28,"refTime":"2025-01-16T03:00:00:Z","depth":0,"parameterNumber":2,"parameterNumberName":"U-component_of_WINDS"},"data":[0,0,0,0,0,0,0,0,0,0,0,0,0,0,0,0,0,0,0,0,0,0,0,0,0,0,0,0,0,0,0,0,0,0,0,0,0,0,0,0,0,0,0,0,0,0,0,0,0,0,0,0,0,0,0,0,0,0,-0.5275,-0.5274,0,-0.513,-0.5128,-0.5127,-0.5012,-0.5011,-0.501,-0.5008,-0.4857,-0.4854,-0.4851,0,0,0,0,0,0,0,0,0,0,0,0,0,-0.545,-0.5447,-0.5275,-0.5274,-0.5272,-0.513,-0.5128,-0.5126,-0.5012,-0.5011,-0.5009,-0.5008,-0.4858,-0.4855,-0.4851,0,0,0,0,0,0,0,0,0,0,0,0,0,-0.5346,-0.5446,-0.5276,-0.5198,-0.5189,-0.5131,-0.5128,-0.5126,-0.5012,-0.5011,-0.5009,-0.5007,-0.4859,-0.4855,-0.4851,-0.4857,0,0,-0.4837,-0.4835,0,0,0,0,0,0,0,0,-0.5352,-0.534,-0.5211,-0.5203,-0.5193,-0.5087,-0.5134,-0.5036,-0.5013,-0.5079,-0.5008,-0.5006,-0.4935,-0.4924,-0.4901,-0.485,-0.4843,-0.4837,-0.4834,-0.4832,-0.4831,0,0,0,0,0,0,0,-0.536,-0.5345,-0.5218,-0.5209,-0.5198,-0.5169,-0.5152,-0.5115,-0.5018,-0.5073,-0.5065,-0.5049,-0.493,-0.4905,-0.4896,-0.4841,-0.4837,-0.4833,-0.483,-0.4828,-0.4787,-0.4788,0,0,0,0,0,0,-0.5379,-0.5352,-0.5222,-0.5213,-0.527,-0.5167,-0.5148,-0.5123,-0.5019,-0.5001,-0.5051,-0.5045,-0.4914,-0.4902,-0.489,-0.489,-0.4832,-0.4828,-0.4825,-0.4785,-0.4787,-0.4789,0,0,0,0,0,0,-0.5383,-0.5369,-0.5228,-0.528,-0.526,-0.5166,-0.5138,-0.5121,-0.5096,-0.5001,-0.4983,-0.5044,-0.4912,-0.4897,-0.4866,-0.4883,-0.4826,-0.4822,-0.4783,-0.4786,-0.4788,-0.4891,0,0,0,0,0,0,-0.5389,-0.5371,-0.5374,-0.5281,-0.5258,-0.5208,-0.5139,-0.5119,-0.5089,-0.508,-0.499,-0.4973,-0.4909,-0.4873,-0.4862,-0.4876,-0.4818,-0.4781,-0.4784,-0.4787,-0.4886,-0.4897,-0.4906,0,0,0,0,0,-0.5396,-0.5408,-0.5374,-0.5359,-0.5259,-0.5209,-0.5195,-0.5122,-0.5091,-0.5092,-0.5031,-0.4976,-0.4883,-0.4871,-0.4857,-0.4871,-0.478,-0.4783,-0.4787,-0.4881,-0.4894,-0.4906,0,0,0,0,0,0,-0.5504,-0.5395,-0.5356,-0.5339,-0.5285,-0.519,-0.5189,-0.5139,-0.5091,-0.5084,-0.4994,-0.4975,-0.4953,-0.4908,-0.4897,-0.487,-0.4824,-0.4825,-0.4901,-0.4913,-0.4923,-0.4934,-0.4815,0,0,0,0,0,-0.5527,-0.5496,-0.5401,-0.5396,-0.537,-0.5285,-0.526,-0.5208,-0.5147,-0.5123,-0.506,-0.5002,-0.4959,-0.4933,-0.4889,-0.4878,-0.4856,-0.488,-0.489,-0.4899,-0.4901,-0.4891,-0.49,-0.48,-0.48,-0.48,0,0,-0.5572,-0.5508,-0.5494,-0.5416,-0.5367,-0.5336,-0.5266,-0.5236,-0.5212,-0.5118,-0.5086,-0.5037,-0.4966,-0.4945,-0.4933,-0.4907,-0.4924,-0.4904,-0.4912,-0.4908,-0.4896,-0.4905,-0.4914,-0.4803,-0.4802,-0.4802,0,0,-0.5639,-0.5588,-0.5577,-0.553,-0.5457,-0.54,-0.5398,-0.531,-0.5274,-0.524,-0.5169,-0.5138,-0.5067,-0.5019,-0.4985,-0.5033,-0.498,-0.502,-0.5074,-0.5065,-0.5073,-0.5079,-0.5096,-0.5103,-0.5023,-0.5023,-0.5023,0,-0.5704,-0.5656,-0.5578,-0.5553,-0.552,-0.5433,-0.5421,-0.5378,-0.5295,-0.5274,-0.5246,-0.5154,-0.5101,-0.5067,-0.5078,-0.5054,-0.5048,-0.5031,-0.5078,-0.5084,-0.5089,-0.5104,-0.511,-0.5028,-0.5028,-0.5027,-0.5027,0,-0.574,-0.5707,-0.5707,-0.563,-0.5596,-0.5578,-0.5495,-0.5471,-0.5421,-0.5366,-0.5332,-0.5264,-0.5204,-0.5192,-0.5143,-0.5151,-0.5137,-0.5095,-0.5047,-0.5105,-0.5118,-0.5123,-0.5036,-0.5034,-0.5032,-0.5031,0,0,-0.5873,-0.5751,-0.5752,-0.5716,-0.5628,-0.5601,-0.5577,-0.5519,-0.55,-0.5444,-0.5422,-0.5363,-0.5323,-0.5285,-0.523,-0.5222,-0.5263,-0.5181,-0.5177,-0.5198,-0.5266,-0.5299,-0.5307,-0.5228,-0.5228,-0.5229,-0.5272,0,-0.5926,-0.5881,-0.5809,-0.5787,-0.5755,-0.5672,-0.5651,-0.5594,-0.5542,-0.5506,-0.5448,-0.5408,-0.5358,-0.5335,-0.5323,-0.5261,-0.5276,-0.5257,-0.5205,-0.5204,-0.5226,-0.5313,-0.5348,-0.5393,-0.5277,-0.5277,-0.5278,0,-0.5983,-0.5933,-0.5908,-0.5822,-0.5806,-0.5789,-0.5729,-0.5696,-0.563,-0.5592,-0.5549,-0.5489,-0.5458,-0.5415,-0.537,-0.5359,-0.5333,-0.5299,-0.5299,-0.5292,-0.5246,-0.5309,-0.5405,-0.5412,-0.5285,-0.5284,-0.5284,0,-0.6083,-0.6009,-0.5984,-0.5955,-0.5854,-0.5844,-0.5801,-0.5733,-0.5702,-0.5649,-0.5628,-0.5572,-0.5542,-0.5499,-0.5425,-0.54,-0.5389,-0.5339,-0.5356,-0.5358,-0.5358,-0.5359,-0.5452,-0.5341,-0.5341,-0.5341,-0.5341,0,-0.615,-0.6138,-0.6027,-0.6012,-0.5996,-0.5912,-0.5897,-0.5846,-0.5786,-0.5759,-0.5682,-0.5658,-0.5561,-0.5524,-0.5466,-0.5438,-0.5424,-0.5392,-0.5377,-0.54,-0.5404,-0.5382,-0.5377,-0.5342,-0.5342,-0.5342,-0.5342,0,-0.626,-0.6185,-0.6152,-0.6059,-0.6035,-0.6027,-0.5946,-0.5928,-0.587,-0.5836,-0.5823,-0.5733,-0.5686,-0.5608,-0.5538,-0.5498,-0.5481,-0.5455,-0.5505,-0.5495,-0.5517,-0.5516,-0.5599,-0.5606,-0.5491,-0.5493,-0.5494,0,-0.6308,-0.6297,-0.6202,-0.6179,-0.6139,-0.6102,-0.607,-0.5986,-0.5956,-0.5879,-0.5869,-0.5816,-0.577,-0.5699,-0.5626,-0.5572,-0.5544,-0.5577,-0.5535,-0.5558,-0.5544,-0.5546,-0.5544,-0.5587,-0.5588,-0.559,-0.5591,0,-0.6402,-0.6365,-0.6323,-0.6268,-0.6232,-0.6184,-0.6132,-0.6117,-0.6021,-0.599,-0.5942,-0.5906,-0.5834,-0.5783,-0.5718,-0.5672,-0.5616,-0.5604,-0.5605,-0.5629,-0.5658,-0.5642,-0.5531,-0.5603,-0.5602,-0.5601,-0.56,-0.56,-0.6482,-0.6468,-0.6399,-0.6354,-0.6306,-0.6259,-0.6237,-0.6177,-0.6135,-0.6071,-0.6023,-0.5978,-0.5909,-0.5817,-0.5774,-0.5736,-0.5711,-0.5712,-0.5713,-0.5715,-0.5724,-0.5664,-0.5724,-0.5724,-0.5723,-0.5723,-0.5722,0,-0.6572,-0.6524,-0.6483,-0.6413,-0.6377,-0.6327,-0.6266,-0.624,-0.6201,-0.6142,-0.6098,-0.6042,-0.5991,-0.5914,-0.5856,-0.5841,-0.5813,-0.5829,-0.5829,-0.582,-0.575,-0.5755,-0.5852,-0.5852,-0.5852,-0.5852,-0.5852,-0.5852,-0.6615,-0.6588,-0.6543,-0.6491,-0.6442,-0.6398,-0.6367,-0.6323,-0.6275,-0.6216,-0.6174,-0.6124,-0.6057,-0.5994,-0.5945,-0.5923,-0.5906,-0.593,-0.59,-0.5836,-0.5825,-0.5813,-0.5817,-0.5926,-0.5926,-0.5973,-0.5973,-0.5974]},{"header":{"parameterUnit":"m.s-1","parameterCategory":1,"la1":30.2991,"la2":30.254,"lo1":-89.0895,"lo2":-89.0444,"dy":0.0017,"dx":0.0017,"nx":28,"ny":28,"refTime":"2025-01-16T03:00:00:Z","depth":0,"parameterNumber":3,"parameterNumberName":"V-component_of_WINDS"},"data":[0,0,0,0,0,0,0,0,0,0,0,0,0,0,0,0,0,0,0,0,0,0,0,0,0,0,0,0,0,0,0,0,0,0,0,0,0,0,0,0,0,0,0,0,0,0,0,0,0,0,0,0,0,0,0,0,0,0,-2.3954,-2.3954,0,-2.4002,-2.4003,-2.4003,-2.3893,-2.3889,-2.3886,-2.3882,-2.3934,-2.3939,-2.3943,0,0,0,0,0,0,0,0,0,0,0,0,0,-2.3766,-2.377,-2.3954,-2.3954,-2.3955,-2.4002,-2.4003,-2.4003,-2.3893,-2.3889,-2.3885,-2.3881,-2.3933,-2.3938,-2.3944,0,0,0,0,0,0,0,0,0,0,0,0,0,-2.3835,-2.3772,-2.3954,-2.3906,-2.3902,-2.4002,-2.4003,-2.4004,-2.3894,-2.3889,-2.3884,-2.3879,-2.3931,-2.3938,-2.3945,-2.4094,0,0,-2.3966,-2.3969,0,0,0,0,0,0,0,0,-2.3831,-2.3842,-2.3912,-2.3909,-2.3905,-2.3936,-2.3955,-2.4034,-2.3896,-2.3897,-2.3882,-2.3876,-2.3939,-2.3945,-2.3966,-2.4097,-2.4099,-2.3967,-2.3971,-2.3974,-2.3976,0,0,0,0,0,0,0,-2.3826,-2.3839,-2.3973,-2.3913,-2.3909,-2.3882,-2.3886,-2.397,-2.3947,-2.3897,-2.3889,-2.3896,-2.3936,-2.3959,-2.3966,-2.41,-2.3966,-2.3973,-2.3977,-2.398,-2.4354,-2.4359,0,0,0,0,0,0,-2.3828,-2.3836,-2.3971,-2.3974,-2.3854,-2.3889,-2.3894,-2.3931,-2.3946,-2.3943,-2.39,-2.389,-2.395,-2.3958,-2.3968,-2.4143,-2.3974,-2.398,-2.3984,-2.4348,-2.4355,-2.4361,0,0,0,0,0,0,-2.3824,-2.3841,-2.3969,-2.3903,-2.3917,-2.3898,-2.3941,-2.3935,-2.3958,-2.3949,-2.3944,-2.3928,-2.3946,-2.3958,-2.4063,-2.4144,-2.3984,-2.399,-2.4341,-2.435,-2.4358,-2.4497,0,0,0,0,0,0,-2.3819,-2.384,-2.3897,-2.3905,-2.3921,-2.4064,-2.3946,-2.394,-2.397,-2.3958,-2.3974,-2.3972,-2.3943,-2.4053,-2.407,-2.4151,-2.3995,-2.4334,-2.4345,-2.4355,-2.4485,-2.4509,-2.453,0,0,0,0,0,-2.3813,-2.3935,-2.39,-2.3917,-2.3992,-2.4069,-2.4078,-2.4043,-2.3977,-2.4034,-2.4028,-2.3971,-2.4132,-2.4065,-2.4083,-2.4167,-2.4329,-2.4342,-2.4355,-2.4475,-2.4504,-2.4529,0,0,0,0,0,0,-2.3938,-2.3935,-2.3897,-2.4025,-2.4048,-2.405,-2.4121,-2.4075,-2.4118,-2.4104,-2.4058,-2.4063,-2.4177,-2.4182,-2.4107,-2.4311,-2.4219,-2.4236,-2.4305,-2.4332,-2.4354,-2.4352,-2.4001,0,0,0,0,0,-2.3981,-2.4043,-2.4037,-2.4151,-2.4164,-2.4141,-2.4174,-2.4143,-2.4166,-2.4175,-2.4176,-2.4201,-2.4256,-2.4294,-2.4345,-2.4484,-2.4486,-2.455,-2.4573,-2.4591,-2.4607,-2.468,-2.4709,-2.4403,-2.4403,-2.4403,0,0,-2.407,-2.4075,-2.4118,-2.4176,-2.4191,-2.4257,-2.415,-2.4225,-2.4274,-2.4187,-2.4286,-2.4288,-2.4311,-2.4434,-2.4488,-2.4442,-2.4691,-2.4608,-2.4622,-2.4628,-2.4697,-2.4726,-2.4751,-2.4412,-2.4411,-2.4409,0,0,-2.4265,-2.4276,-2.4372,-2.4387,-2.441,-2.4393,-2.4416,-2.4425,-2.4422,-2.452,-2.4456,-2.4513,-2.461,-2.463,-2.4652,-2.4852,-2.4802,-2.487,-2.4988,-2.506,-2.5084,-2.5105,-2.5177,-2.5203,-2.4885,-2.4886,-2.4886,0,-2.4374,-2.447,-2.4427,-2.4506,-2.4533,-2.4455,-2.4552,-2.4569,-2.4608,-2.4628,-2.4575,-2.4694,-2.4705,-2.4831,-2.4879,-2.49,-2.4925,-2.4869,-2.5084,-2.5104,-2.5123,-2.5191,-2.5219,-2.4894,-2.4893,-2.4892,-2.4891,0,-2.4602,-2.467,-2.4744,-2.4782,-2.4817,-2.4905,-2.4874,-2.4915,-2.4881,-2.487,-2.4971,-2.498,-2.5031,-2.5058,-2.5027,-2.5179,-2.515,-2.5091,-2.4998,-2.5162,-2.5225,-2.525,-2.4906,-2.4903,-2.49,-2.4898,0,0,-2.4881,-2.4891,-2.492,-2.4935,-2.4953,-2.5005,-2.5088,-2.5136,-2.5172,-2.52,-2.5269,-2.5352,-2.5297,-2.5322,-2.5292,-2.5355,-2.5513,-2.5288,-2.5287,-2.533,-2.5681,-2.5727,-2.5758,-2.5478,-2.5483,-2.5486,-2.568,0,-2.5075,-2.5218,-2.518,-2.5322,-2.5384,-2.531,-2.5382,-2.5401,-2.5392,-2.5443,-2.5432,-2.5492,-2.5415,-2.543,-2.5488,-2.5481,-2.5583,-2.5466,-2.5542,-2.5546,-2.554,-2.5791,-2.5839,-2.6021,-2.5704,-2.5708,-2.5711,0,-2.5322,-2.5358,-2.5506,-2.5512,-2.5536,-2.5602,-2.5643,-2.5692,-2.5711,-2.57,-2.5728,-2.5684,-2.5765,-2.567,-2.5781,-2.5703,-2.5731,-2.5732,-2.5738,-2.5746,-2.564,-2.5806,-2.6079,-2.6107,-2.5749,-2.5746,-2.5744,0,-2.5511,-2.5597,-2.5696,-2.5712,-2.5721,-2.5769,-2.5775,-2.5788,-2.5819,-2.5855,-2.5874,-2.5919,-2.5944,-2.598,-2.5949,-2.5882,-2.6065,-2.5967,-2.6059,-2.606,-2.6103,-2.6101,-2.6386,-2.6119,-2.6119,-2.6118,-2.6118,0,-2.5733,-2.5827,-2.5782,-2.5843,-2.5946,-2.59,-2.6003,-2.6001,-2.6013,-2.6072,-2.601,-2.6068,-2.6022,-2.6075,-2.6051,-2.6148,-2.6159,-2.6153,-2.6146,-2.616,-2.6161,-2.6179,-2.6166,-2.6125,-2.6124,-2.6122,-2.6121,0,-2.5964,-2.5937,-2.604,-2.6039,-2.6041,-2.6117,-2.6116,-2.6173,-2.6158,-2.6234,-2.6249,-2.6227,-2.6286,-2.6257,-2.632,-2.6303,-2.6428,-2.6403,-2.6422,-2.6416,-2.651,-2.6502,-2.6817,-2.6857,-2.6563,-2.6566,-2.6569,0,-2.6108,-2.6178,-2.6184,-2.6219,-2.6229,-2.6286,-2.6317,-2.6274,-2.6309,-2.6334,-2.6388,-2.6441,-2.6482,-2.658,-2.6569,-2.6616,-2.6593,-2.67,-2.66,-2.6611,-2.6596,-2.6593,-2.6599,-2.6721,-2.6724,-2.6727,-2.6729,0,-2.6367,-2.6349,-2.6396,-2.6438,-2.6476,-2.6507,-2.6533,-2.6565,-2.6523,-2.6565,-2.6624,-2.6655,-2.6717,-2.6771,-2.6812,-2.6817,-2.6768,-2.6761,-2.6784,-2.6801,-2.6809,-2.6807,-2.6478,-2.6754,-2.6752,-2.675,-2.6749,-2.6748,-2.6559,-2.6618,-2.6631,-2.6684,-2.6698,-2.6723,-2.6776,-2.6767,-2.6815,-2.6862,-2.6834,-2.6903,-2.6918,-2.6967,-2.698,-2.7033,-2.6991,-2.7025,-2.7034,-2.7044,-2.7057,-2.6799,-2.704,-2.7039,-2.7039,-2.7038,-2.7037,0,-2.6816,-2.682,-2.6869,-2.6906,-2.6948,-2.6894,-2.692,-2.6959,-2.702,-2.7038,-2.7079,-2.7146,-2.7198,-2.719,-2.7236,-2.7281,-2.7259,-2.7295,-2.7292,-2.7294,-2.7092,-2.7067,-2.7312,-2.7312,-2.7312,-2.7312,-2.7311,-2.7311,-2.6954,-2.7051,-2.7034,-2.7137,-2.7139,-2.7206,-2.7225,-2.7248,-2.7262,-2.734,-2.7382,-2.7375,-2.7383,-2.7429,-2.7474,-2.747,-2.7491,-2.7536,-2.7524,-2.7336,-2.7309,-2.7283,-2.7259,-2.754,-2.7541,-2.7722,-2.7723,-2.7725]}]]